2E1HJE-10 Weather Reports


time (UTC)temp
C
wind
direction
speed
KPH
gust
KPH
rain 1hr
cm
rain 24hr
cm
rain mn
cm
humidity
%
barometer
mb
20260506193828 11 10 12.9 24.1 0.00 0.00 0.00 62 1013.4
20260506191828 11 14 12.9 24.1 0.00 0.00 0.00 62 1013.4
20260506190827 11 18 12.9 24.1 0.00 0.00 0.00 62 1013.4
20260506185827 11 17 12.9 22.5 0.00 0.00 0.00 60 1013.0
20260506183827 11 358 9.7 19.3 0.00 0.00 0.00 60 1013.0
20260506182829 11 355 9.7 19.3 0.00 0.00 0.00 63 1012.8
20260506181827 11 355 9.7 19.3 0.00 0.00 0.00 63 1012.8
20260506180828 11 352 9.7 19.3 0.00 0.00 0.00 63 1012.8
20260506175827 11 356 11.3 24.1 0.00 0.00 0.00 63 1012.6
20260506172827 12 359 12.9 27.4 0.00 0.00 0.00 60 1012.6
20260506164827 12 2 11.3 22.5 0.00 0.00 0.00 62 1012.4
20260506161827 12 359 11.3 22.5 0.00 0.00 0.00 62 1012.4
20260506160827 12 0 11.3 22.5 0.00 0.03 0.03 60 1012.3
20260506154828 12 358 12.9 29.0 0.00 0.03 0.03 64 1012.4
20260506152827 11 353 14.5 29.0 0.00 0.03 0.03 64 1012.4
20260506144827 11 10 16.1 30.6 0.00 0.03 0.03 64 1012.6
20260506130827 11 10 16.1 30.6 0.00 0.03 0.03 74 1012.9
20260506124827 11 12 16.1 33.8 0.00 0.00 0.00 73 1012.6
20260506122827 11 16 17.7 33.8 0.00 0.00 0.00 73 1012.6
20260506120827 11 18 19.3 35.4 0.00 0.00 0.00 73 1012.6
20260506115827 11 353 19.3 35.4 0.00 0.00 0.00 58 1012.2
20260506111827 11 358 17.7 35.4 0.00 0.00 0.00 63 1012.5
20260506110828 11 0 17.7 35.4 0.00 0.00 0.00 63 1012.5
20260506103827 11 357 14.5 32.2 0.00 0.00 0.00 64 1012.2
20260506093827 11 358 16.1 32.2 0.00 0.00 0.00 63 1012.4
20260506080827 9 350 17.7 33.8 0.00 0.00 0.00 67 1012.6